| time (UTC) | temp C | wind direction | speed KPH | gust KPH | rain 1hr cm | rain 24hr cm | rain mn cm | humidity % | barometer mb |
| 20260902231518 | 15 | 201 | 24.1 | 45.1 | 0.03 | 0.03 | 0.03 | 72 | 1009.2 |
| 20260902230016 | 19 | 281 | 19.3 | 59.5 | 0.00 | 0.00 | 0.00 | 54 | 1008.1 |
| 20260902224516 | 26 | 169 | 9.7 | 16.1 | 0.00 | 0.00 | 0.00 | 23 | 1005.1 |
| 20260902223012 | 26 | 145 | 1.6 | 11.3 | 0.00 | 0.00 | 0.00 | 30 | 1004.5 |
| 20260902221507 | 27 | 155 | 4.8 | 11.3 | 0.00 | 0.00 | 0.00 | 29 | 1005.0 |
| 20260902220005 | 28 | 195 | 6.4 | 16.1 | 0.00 | 0.00 | 0.00 | 29 | 1005.2 |
| 20260902214503 | 28 | 171 | 6.4 | 14.5 | 0.00 | 0.00 | 0.00 | 29 | 1005.4 |
| 20260902213000 | 28 | 176 | 1.6 | 14.5 | 0.00 | 0.00 | 0.00 | 30 | 1005.5 |
| 20260902211608 | 28 | 247 | 4.8 | 20.9 | 0.00 | 0.00 | 0.00 | 30 | 1005.8 |
| 20260902210112 | 28 | 203 | 8.0 | 17.7 | 0.00 | 0.00 | 0.00 | 30 | 1006.1 |
| 20260902204545 | 27 | 151 | 4.8 | 12.9 | 0.00 | 0.00 | 0.00 | 31 | 1006.5 |
| 20260902203044 | 27 | 159 | 4.8 | 12.9 | 0.00 | 0.00 | 0.00 | 33 | 1006.8 |
| 20260902201537 | 26 | 158 | 8.0 | 16.1 | 0.00 | 0.00 | 0.00 | 34 | 1007.0 |
| 20260902200034 | 26 | 136 | 6.4 | 19.3 | 0.00 | 0.00 | 0.00 | 34 | 1007.1 |
| 20260902194534 | 25 | 155 | 8.0 | 17.7 | 0.00 | 0.00 | 0.00 | 35 | 1007.3 |
| 20260902193031 | 25 | 175 | 4.8 | 17.7 | 0.00 | 0.00 | 0.00 | 36 | 1007.5 |
| 20260902191628 | 25 | 217 | 4.8 | 19.3 | 0.00 | 0.00 | 0.00 | 36 | 1007.6 |
| 20260902190059 | 26 | 210 | 8.0 | 19.3 | 0.00 | 0.00 | 0.00 | 35 | 1007.9 |
| 20260902184554 | 26 | 210 | 6.4 | 17.7 | 0.00 | 0.00 | 0.00 | 36 | 1008.0 |
| 20260902183049 | 25 | 244 | 6.4 | 20.9 | 0.00 | 0.00 | 0.00 | 39 | 1008.2 |
| 20260902181554 | 25 | 177 | 6.4 | 16.1 | 0.00 | 0.00 | 0.00 | 40 | 1008.4 |
| 20260902180059 | 23 | 272 | 8.0 | 22.5 | 0.00 | 0.00 | 0.00 | 41 | 1008.6 |
| 20260902174540 | 24 | 233 | 9.7 | 22.5 | 0.00 | 0.00 | 0.00 | 41 | 1008.8 |
| 20260902173035 | 22 | 257 | 6.4 | 19.3 | 0.00 | 0.00 | 0.00 | 44 | 1009.0 |
| 20260902171533 | 22 | 247 | 8.0 | 22.5 | 0.00 | 0.00 | 0.00 | 43 | 1008.9 |
| 20260902170034 | 22 | 209 | 8.0 | 16.1 | 0.00 | 0.00 | 0.00 | 44 | 1008.8 |
| 20260902164532 | 22 | 211 | 4.8 | 12.9 | 0.00 | 0.00 | 0.00 | 43 | 1008.7 |
| 20260902163028 | 22 | 217 | 4.8 | 11.3 | 0.00 | 0.00 | 0.00 | 44 | 1008.7 |
| 20260902161526 | 22 | 236 | 4.8 | 14.5 | 0.00 | 0.00 | 0.00 | 43 | 1008.7 |
| 20260902160024 | 22 | 245 | 4.8 | 14.5 | 0.00 | 0.00 | 0.00 | 44 | 1008.9 |
| 20260902154523 | 21 | 172 | 4.8 | 12.9 | 0.00 | 0.00 | 0.00 | 45 | 1009.1 |
| 20260902153017 | 20 | 202 | 3.2 | 9.7 | 0.00 | 0.00 | 0.00 | 48 | 1009.2 |
| 20260902151517 | 18 | 233 | 0.0 | 4.8 | 0.00 | 0.00 | 0.00 | 53 | 1009.4 |
| 20260902150010 | 17 | 259 | 0.0 | 3.2 | 0.00 | 0.00 | 0.00 | 55 | 1009.6 |
| 20260902144517 | 16 | 247 | 0.0 | 1.6 | 0.00 | 0.00 | 0.00 | 54 | 1009.7 |
| 20260902143002 | 16 | 161 | 0.0 | 3.2 | 0.00 | 0.00 | 0.00 | 56 | 1009.8 |
| 20260902141502 | 16 | 226 | 1.6 | 4.8 | 0.00 | 0.00 | 0.00 | 54 | 1010.0 |
| 20260902140002 | 16 | 234 | 3.2 | 9.7 | 0.00 | 0.00 | 0.00 | 52 | 1009.9 |
| 20260902134559 | 16 | 242 | 1.6 | 4.8 | 0.00 | 0.00 | 0.00 | 54 | 1009.8 |
| 20260902133025 | 15 | 238 | 0.0 | 3.2 | 0.00 | 0.00 | 0.00 | 57 | 1009.5 |
| 20260902131520 | 13 | 297 | 0.0 | 1.6 | 0.00 | 0.00 | 0.00 | 62 | 1009.4 |
| 20260902130046 | 12 | 267 | 0.0 | 3.2 | 0.00 | 0.00 | 0.00 | 64 | 1009.5 |
| 20260902124543 | 11 | 275 | 0.0 | 6.4 | 0.00 | 0.00 | 0.00 | 66 | 1009.5 |
| 20260902123037 | 11 | 259 | 1.6 | 6.4 | 0.00 | 0.00 | 0.00 | 68 | 1009.3 |
| 20260902121536 | 11 | 333 | 0.0 | 6.4 | 0.00 | 0.00 | 0.00 | 68 | 1009.3 |
| 20260902120033 | 10 | 359 | 0.0 | 0.0 | 0.00 | 0.00 | 0.00 | 69 | 1009.8 |
| 20260902114535 | 10 | 304 | 0.0 | 0.0 | 0.00 | 0.00 | 0.00 | 70 | 1009.8 |
| 20260902113030 | 10 | 295 | 0.0 | 1.6 | 0.00 | 0.00 | 0.00 | 71 | 1010.0 |
| 20260902111530 | 10 | 304 | 0.0 | 3.2 | 0.00 | 0.00 | 0.00 | 71 | 1010.5 |
| 20260902110030 | 8 | 317 | 0.0 | 1.6 | 0.00 | 0.00 | 0.00 | 73 | 1010.4 |
| 20260902104538 | 8 | 268 | 1.6 | 4.8 | 0.00 | 0.00 | 0.00 | 74 | 1010.2 |
| 20260902103023 | 8 | 241 | 0.0 | 0.0 | 0.00 | 0.00 | 0.00 | 72 | 1010.0 |
| 20260902101531 | 8 | 241 | 0.0 | 1.6 | 0.00 | 0.00 | 0.00 | 72 | 1010.0 |
| 20260902100021 | 10 | 244 | 0.0 | 1.6 | 0.00 | 0.00 | 0.00 | 69 | 1010.0 |
| 20260902094519 | 10 | 249 | 0.0 | 1.6 | 0.00 | 0.00 | 0.00 | 67 | 1009.7 |
| 20260902093023 | 10 | 242 | 0.0 | 3.2 | 0.00 | 0.00 | 0.00 | 68 | 1009.9 |
| 20260902091514 | 10 | 291 | 0.0 | 1.6 | 0.00 | 0.00 | 0.00 | 70 | 1010.1 |
| 20260902090013 | 9 | 289 | 0.0 | 3.2 | 0.00 | 0.00 | 0.00 | 71 | 1010.4 |
| 20260902084511 | 9 | 276 | 0.0 | 1.6 | 0.00 | 0.00 | 0.00 | 71 | 1010.4 |
| 20260902083008 | 9 | 303 | 0.0 | 3.2 | 0.00 | 0.00 | 0.00 | 70 | 1010.6 |
| 20260902081508 | 9 | 236 | 0.0 | 1.6 | 0.00 | 0.00 | 0.00 | 70 | 1010.5 |
| 20260902080007 | 8 | 236 | 0.0 | 0.0 | 0.00 | 0.00 | 0.00 | 71 | 1010.5 |
| 20260902074505 | 9 | 236 | 1.6 | 3.2 | 0.00 | 0.00 | 0.00 | 69 | 1010.6 |
| 20260902073003 | 9 | 303 | 0.0 | 1.6 | 0.00 | 0.00 | 0.00 | 70 | 1010.4 |
| 20260902071559 | 10 | 303 | 0.0 | 1.6 | 0.00 | 0.00 | 0.00 | 69 | 1010.3 |
| 20260902070100 | 10 | 292 | 0.0 | 1.6 | 0.00 | 0.00 | 0.00 | 69 | 1010.6 |
| 20260902064609 | 10 | 233 | 0.0 | 1.6 | 0.00 | 0.00 | 0.00 | 68 | 1010.6 |
| 20260902063050 | 10 | 230 | 0.0 | 0.0 | 0.00 | 0.00 | 0.00 | 66 | 1010.6 |
| 20260902061555 | 11 | 230 | 0.0 | 0.0 | 0.00 | 0.00 | 0.00 | 65 | 1010.7 |
| 20260902060046 | 11 | 230 | 0.0 | 0.0 | 0.00 | 0.00 | 0.00 | 63 | 1010.8 |
| 20260902054546 | 11 | 229 | 0.0 | 0.0 | 0.00 | 0.00 | 0.00 | 63 | 1010.8 |
| 20260902053048 | 12 | 230 | 0.0 | 0.0 | 0.00 | 0.00 | 0.00 | 63 | 1011.0 |
| 20260902051546 | 10 | 229 | 0.0 | 0.0 | 0.00 | 0.00 | 0.00 | 67 | 1010.9 |
| 20260902050041 | 10 | 230 | 0.0 | 0.0 | 0.00 | 0.00 | 0.00 | 65 | 1010.9 |
| 20260902044540 | 11 | 230 | 0.0 | 0.0 | 0.00 | 0.00 | 0.00 | 63 | 1011.0 |
| 20260902043040 | 11 | 230 | 0.0 | 0.0 | 0.00 | 0.00 | 0.00 | 62 | 1011.0 |
| 20260902041538 | 12 | 230 | 0.0 | 1.6 | 0.00 | 0.00 | 0.00 | 60 | 1011.0 |
| 20260902040038 | 12 | 229 | 0.0 | 0.0 | 0.00 | 0.00 | 0.00 | 58 | 1011.0 |
| 20260902034549 | 13 | 230 | 0.0 | 0.0 | 0.00 | 0.00 | 0.00 | 54 | 1011.0 |
| 20260902033053 | 15 | 230 | 0.0 | 1.6 | 0.00 | 0.00 | 0.00 | 49 | 1011.2 |
| 20260902031534 | 14 | 229 | 0.0 | 0.0 | 0.00 | 0.00 | 0.00 | 51 | 1011.1 |
| 20260902030033 | 13 | 230 | 0.0 | 1.6 | 0.00 | 0.00 | 0.00 | 52 | 1011.1 |
| 20260902024540 | 15 | 173 | 0.0 | 0.0 | 0.00 | 0.00 | 0.00 | 49 | 1010.9 |
| 20260902023033 | 17 | 173 | 0.0 | 0.0 | 0.00 | 0.00 | 0.00 | 45 | 1011.0 |
| 20260902021510 | 20 | 173 | 0.0 | 0.0 | 0.00 | 0.00 | 0.00 | 40 | 1010.9 |
| 20260902020000 | 21 | 173 | 0.0 | 0.0 | 0.00 | 0.00 | 0.00 | 33 | 1010.9 |
| 20260902014559 | 23 | 173 | 0.0 | 1.6 | 0.00 | 0.00 | 0.00 | 32 | 1010.9 |
| 20260902013104 | 25 | 163 | 0.0 | 3.2 | 0.00 | 0.00 | 0.00 | 29 | 1011.0 |
| 20260902011559 | 26 | 161 | 3.2 | 9.7 | 0.00 | 0.00 | 0.00 | 27 | 1010.9 |
| 20260902010059 | 26 | 151 | 1.6 | 9.7 | 0.00 | 0.00 | 0.00 | 27 | 1010.9 |
| 20260902004553 | 26 | 117 | 6.4 | 14.5 | 0.00 | 0.00 | 0.00 | 26 | 1011.0 |
| 20260902003052 | 27 | 129 | 8.0 | 12.9 | 0.00 | 0.00 | 0.00 | 25 | 1011.0 |
| 20260902001551 | 27 | 111 | 6.4 | 19.3 | 0.00 | 0.00 | 0.00 | 25 | 1011.0 |
| 20260902000049 | 28 | 108 | 6.4 | 12.9 | 0.00 | 0.00 | 0.00 | 25 | 1011.1 |
| 20260901234518 | 28 | 180 | 4.8 | 11.3 | 0.00 | 0.00 | 0.00 | 26 | 1011.2 |
| 20260901233027 | 28 | 157 | 4.8 | 12.9 | 0.00 | 0.00 | 0.00 | 26 | 1011.3 |